GW6563 Weather Reports


time (UTC)temp
C
wind
direction
speed
KPH
gust
KPH
rain 1hr
cm
rain 24hr
cm
rain mn
cm
humidity
%
barometer
mb
20260509224521 17 133 4.8 14.5 0.00 0.53 0.53 54 1009.0
20260509224004 17 89 4.8 22.5 0.00 0.53 0.53 55 1009.1
20260509223504 17 202 6.4 22.5 0.00 0.53 0.53 55 1009.1
20260509223020 17 202 8.0 19.3 0.00 0.53 0.53 55 1009.2
20260509222506 17 204 4.8 14.5 0.00 0.53 0.53 55 1009.3
20260509222004 17 145 8.0 14.5 0.00 0.53 0.53 55 1009.3
20260509221518 17 217 8.0 14.5 0.00 0.53 0.53 55 1009.2
20260509221004 17 193 6.4 20.9 0.00 0.53 0.53 55 1009.2
20260509220504 17 195 9.7 20.9 0.00 0.53 0.53 54 1009.2
20260509220016 17 169 11.3 20.9 0.00 0.53 0.53 54 1009.3
20260509215506 17 170 4.8 24.1 0.00 0.53 0.53 54 1009.4
20260509215004 17 147 11.3 24.1 0.00 0.53 0.53 53 1009.3
20260509214525 17 134 11.3 24.1 0.00 0.53 0.53 54 1009.2
20260509214005 17 147 12.9 22.5 0.00 0.53 0.53 55 1009.1
20260509213503 17 170 8.0 22.5 0.00 0.53 0.53 55 1009.0
20260509213022 17 147 11.3 20.9 0.00 0.53 0.53 54 1009.1
20260509212506 17 202 6.4 20.9 0.00 0.53 0.53 57 1009.1
20260509212003 17 177 9.7 17.7 0.00 0.53 0.53 56 1009.1
20260509211508 17 143 6.4 19.3 0.00 0.53 0.53 56 1009.1
20260509211004 17 96 4.8 20.9 0.00 0.53 0.53 57 1009.1
20260509210504 17 58 9.7 20.9 0.00 0.53 0.53 56 1009.1
20260509210014 17 102 6.4 19.3 0.00 0.53 0.53 55 1009.2
20260509205504 17 124 8.0 16.1 0.00 0.53 0.53 57 1009.2
20260509205007 17 101 6.4 16.1 0.00 0.53 0.53 56 1009.3
20260509204521 17 206 9.7 17.7 0.00 0.53 0.53 56 1009.3
20260509204008 17 191 4.8 22.5 0.00 0.53 0.53 58 1009.3
20260509203504 17 221 12.9 22.5 0.00 0.53 0.53 56 1009.4
20260509203025 17 249 6.4 24.1 0.00 0.53 0.53 58 1009.4
20260509202507 16 194 6.4 24.1 0.00 0.53 0.53 57 1009.6
20260509202009 16 84 8.0 17.7 0.00 0.53 0.53 59 1009.5
20260509201508 16 4 6.4 16.1 0.00 0.53 0.53 59 1009.6
20260509201003 16 84 9.7 16.1 0.00 0.53 0.53 59 1009.7
20260509200508 16 166 4.8 12.9 0.00 0.53 0.53 63 1009.6
20260509200013 16 129 8.0 16.1 0.00 0.53 0.53 62 1009.7
20260509195506 16 205 6.4 16.1 0.00 0.53 0.53 65 1009.8
20260509195004 16 133 6.4 17.7 0.00 0.53 0.53 64 1009.8
20260509194523 16 120 9.7 16.1 0.00 0.53 0.53 62 1009.9
20260509194007 16 161 1.6 19.3 0.00 0.53 0.53 68 1010.0
20260509193512 16 160 8.0 19.3 0.00 0.53 0.53 64 1010.1
20260509193022 16 189 4.8 16.1 0.00 0.53 0.53 66 1010.2
20260509192510 15 144 6.4 16.1 0.00 0.53 0.53 69 1010.2
20260509192008 15 98 6.4 14.5 0.00 0.53 0.53 70 1010.2
20260509191523 15 115 4.8 14.5 0.00 0.53 0.53 72 1010.3
20260509191006 14 129 4.8 14.5 0.00 0.53 0.53 73 1010.4
20260509190503 13 98 3.2 16.1 0.00 0.53 0.53 79 1010.4
20260509190012 13 146 6.4 16.1 0.00 0.53 0.53 75 1010.5
20260509185505 13 169 4.8 11.3 0.00 0.53 0.53 78 1010.5
20260509185007 13 184 1.6 8.0 0.00 0.53 0.53 83 1010.6
20260509184529 12 235 1.6 8.0 0.00 0.53 0.53 83 1010.7
20260509184003 12 188 4.8 12.9 0.00 0.53 0.53 83 1010.6
20260509183504 12 191 4.8 12.9 0.00 0.53 0.53 82 1010.6
20260509183022 12 212 8.0 12.9 0.00 0.53 0.53 82 1010.6
20260509182509 12 204 4.8 8.0 0.00 0.53 0.53 82 1010.6
20260509182006 12 79 3.2 6.4 0.00 0.53 0.53 83 1010.6
20260509181523 12 222 1.6 6.4 0.00 0.53 0.53 83 1010.6
20260509181010 12 80 0.0 4.8 0.00 0.53 0.53 84 1010.6
20260509180508 12 180 1.6 8.0 0.00 0.53 0.53 84 1010.5
20260509180025 12 75 1.6 9.7 0.00 0.53 0.53 86 1010.5
20260509175504 11 146 4.8 9.7 0.00 0.53 0.53 85 1010.5
20260509175004 11 82 3.2 9.7 0.00 0.53 0.53 85 1010.5
20260509174514 11 149 3.2 9.7 0.00 0.53 0.53 85 1010.5
20260509174005 11 122 4.8 14.5 0.03 0.53 0.53 87 1010.6
20260509173504 11 136 4.8 16.1 0.03 0.53 0.53 86 1010.4
20260509173018 11 81 8.0 16.1 0.03 0.53 0.53 87 1010.4
20260509172504 11 112 9.7 14.5 0.03 0.53 0.53 87 1010.3
20260509172005 11 82 4.8 14.5 0.03 0.53 0.53 88 1010.2
20260509171524 11 87 4.8 14.5 0.05 0.53 0.53 88 1010.2
20260509171005 11 103 3.2 9.7 0.05 0.53 0.53 88 1010.2
20260509170506 11 57 3.2 9.7 0.05 0.53 0.53 89 1010.3
20260509170024 11 91 1.6 14.5 0.05 0.53 0.53 88 1010.4
20260509165508 11 81 8.0 14.5 0.08 0.53 0.53 87 1010.4
20260509165007 11 91 4.8 16.1 0.08 0.53 0.53 88 1010.3
20260509164527 11 81 8.0 19.3 0.10 0.53 0.53 87 1010.3
20260509164004 11 98 8.0 19.3 0.08 0.51 0.51 87 1010.4
20260509163507 11 103 6.4 14.5 0.10 0.51 0.51 88 1010.5
20260509163028 11 98 4.8 14.5 0.10 0.51 0.51 89 1010.5
20260509162506 11 80 3.2 9.7 0.13 0.51 0.51 89 1010.6
20260509162004 11 118 4.8 9.7 0.13 0.51 0.51 88 1010.7
20260509161522 11 140 1.6 9.7 0.10 0.48 0.48 89 1010.7
20260509161008 11 74 3.2 9.7 0.13 0.48 0.48 89 1010.7
20260509160508 11 89 1.6 11.3 0.13 0.48 0.48 89 1010.7
20260509160024 11 75 3.2 11.3 0.13 0.48 0.48 89 1010.7
20260509155509 11 94 6.4 11.3 0.10 0.46 0.46 90 1010.7
20260509155011 11 65 1.6 12.9 0.13 0.46 0.46 89 1010.7
20260509154523 11 133 6.4 12.9 0.10 0.43 0.43 88 1010.8
20260509154010 11 83 1.6 9.7 0.10 0.43 0.43 88 1010.8
20260509153506 11 62 3.2 6.4 0.08 0.41 0.41 89 1010.8
20260509153016 11 177 1.6 6.4 0.08 0.41 0.41 89 1010.8
20260509152505 11 89 1.6 8.0 0.05 0.38 0.38 89 1010.8
20260509152004 11 91 0.0 9.7 0.05 0.38 0.38 89 1010.7
20260509151519 11 78 4.8 9.7 0.05 0.38 0.38 88 1010.8
20260509151006 11 70 1.6 9.7 0.05 0.36 0.36 89 1010.7
20260509150508 11 78 1.6 12.9 0.05 0.36 0.36 89 1010.6
20260509150027 11 86 1.6 12.9 0.05 0.36 0.36 88 1010.8
20260509145507 11 82 4.8 9.7 0.08 0.36 0.36 88 1010.8
20260509145008 11 94 3.2 9.7 0.05 0.33 0.33 89 1010.8
20260509144524 11 87 1.6 8.0 0.08 0.33 0.33 89 1010.8
20260509144009 10 85 1.6 9.7 0.10 0.33 0.33 88 1010.8
20260509143507 10 103 1.6 9.7 0.10 0.33 0.33 89 1010.9
20260509143028 10 88 3.2 9.7 0.13 0.33 0.33 89 1010.9
20260509142507 10 108 3.2 9.7 0.13 0.33 0.33 89 1010.8
20260509142009 10 78 3.2 8.0 0.13 0.33 0.33 90 1010.9
20260509141531 10 82 1.6 8.0 0.15 0.33 0.33 90 1010.9
20260509141008 10 90 3.2 9.7 0.13 0.30 0.30 90 1010.9
20260509140503 10 91 3.2 9.7 0.13 0.30 0.30 90 1011.0
20260509140022 10 84 6.4 9.7 0.13 0.30 0.30 89 1011.0
20260509135507 10 95 4.8 8.0 0.10 0.28 0.28 89 1010.9
20260509135009 10 77 1.6 9.7 0.13 0.28 0.28 90 1010.9
20260509134525 10 27 4.8 14.5 0.10 0.25 0.25 89 1011.0
20260509134007 10 90 6.4 12.9 0.10 0.23 0.23 89 1011.0
20260509133508 10 65 0.0 14.5 0.10 0.23 0.23 89 1011.0
20260509133026 10 86 6.4 14.5 0.08 0.20 0.20 89 1011.0
20260509132512 10 79 1.6 9.7 0.10 0.20 0.20 89 1011.0
20260509132008 10 99 4.8 8.0 0.10 0.20 0.20 90 1011.0
20260509131526 10 86 3.2 8.0 0.08 0.18 0.18 90 1011.0
20260509131007 10 30 1.6 6.4 0.08 0.18 0.18 90 1011.1
20260509130507 10 101 1.6 4.8 0.08 0.18 0.18 90 1011.1
20260509130021 10 65 1.6 4.8 0.10 0.18 0.18 90 1011.1
20260509125507 10 65 0.0 8.0 0.10 0.18 0.18 90 1011.2
20260509125012 10 78 1.6 8.0 0.08 0.15 0.15 89 1011.2
20260509124534 10 72 0.0 8.0 0.08 0.15 0.15 89 1011.2
20260509124012 10 103 1.6 8.0 0.05 0.13 0.13 89 1011.2
20260509123508 10 68 1.6 9.7 0.05 0.13 0.13 89 1011.2
20260509123040 10 95 3.2 9.7 0.08 0.13 0.13 89 1011.3
20260509122508 10 87 4.8 8.0 0.05 0.10 0.10 88 1011.3
20260509122009 10 84 4.8 8.0 0.05 0.10 0.10 88 1011.3
20260509121515 10 101 4.8 11.3 0.05 0.10 0.10 88 1011.2
20260509121006 10 91 1.6 11.3 0.05 0.10 0.10 88 1011.3
20260509120506 9 77 3.2 6.4 0.05 0.10 0.10 88 1011.2
20260509120018 9 82 3.2 6.4 0.03 0.08 0.08 88 1011.3
20260509115508 9 44 1.6 6.4 0.03 0.08 0.08 88 1011.2
20260509115011 9 45 1.6 8.0 0.03 0.08 0.08 88 1011.3
20260509114526 9 84 3.2 8.0 0.03 0.08 0.08 87 1011.3
20260509114002 9 73 4.8 6.4 0.03 0.08 0.08 87 1011.3
20260509113503 9 87 1.6 4.8 0.03 0.08 0.08 86 1011.2
20260509113003 9 91 0.0 11.3 0.00 0.05 0.05 86 1011.3
20260509112504 9 136 4.8 11.3 0.00 0.05 0.05 85 1011.2
20260509112003 9 94 0.0 11.3 0.00 0.05 0.05 85 1011.2
20260509111511 9 64 4.8 9.7 0.00 0.05 0.05 85 1011.3
20260509111007 9 73 3.2 11.3 0.00 0.05 0.05 85 1011.3
20260509110505 9 57 6.4 11.3 0.00 0.05 0.05 84 1011.2
20260509110018 9 74 6.4 9.7 0.00 0.05 0.05 84 1011.2
20260509105507 9 84 3.2 8.0 0.03 0.05 0.05 84 1011.2
20260509105007 9 84 3.2 8.0 0.03 0.05 0.05 84 1011.1
20260509104527 9 71 4.8 8.0 0.03 0.05 0.05 84 1011.1
20260509104008 9 34 3.2 9.7 0.03 0.05 0.05 85 1011.1
20260509103508 9 58 3.2 9.7 0.03 0.05 0.05 85 1011.2
20260509103004 9 67 1.6 6.4 0.05 0.05 0.05 85 1011.3
20260509102505 9 82 1.6 6.4 0.05 0.05 0.05 84 1011.3
20260509102004 9 77 3.2 4.8 0.05 0.05 0.05 84 1011.3
20260509101508 9 92 0.0 4.8 0.05 0.05 0.05 84 1011.3
20260509101003 10 30 1.6 8.0 0.05 0.05 0.05 83 1011.2
20260509100504 10 91 4.8 8.0 0.05 0.05 0.05 82 1011.4
20260509100018 10 178 3.2 8.0 0.05 0.05 0.05 82 1011.4
20260509095506 10 146 0.0 11.3 0.03 0.03 0.03 82 1011.4
20260509095004 10 112 3.2 14.5 0.03 0.03 0.03 81 1011.5
20260509094518 10 137 6.4 14.5 0.03 0.03 0.03 81 1011.6
20260509094007 10 199 4.8 20.9 0.03 0.03 0.03 81 1011.5
20260509093510 10 231 8.0 20.9 0.03 0.03 0.03 80 1011.5
20260509093023 9 143 6.4 11.3 0.00 0.00 0.00 82 1011.5
20260509092508 8 131 0.0 9.7 0.00 0.00 0.00 82 1011.5
20260509092004 8 46 0.0 9.7 0.00 0.00 0.00 85 1011.4
20260509091507 8 4 0.0 3.2 0.00 0.00 0.00 87 1011.4
20260509091003 7 3 1.6 3.2 0.00 0.00 0.00 89 1011.3
20260509090503 7 11 1.6 3.2 0.00 0.00 0.00 89 1011.2
20260509090010 7 164 0.0 3.2 0.00 0.00 0.00 89 1011.2
20260509085504 7 164 0.0 6.4 0.00 0.00 0.00 89 1011.2
20260509085004 7 205 4.8 6.4 0.00 0.00 0.00 89 1011.2
20260509084518 7 205 0.0 4.8 0.00 0.00 0.00 89 1011.1
20260509084005 7 205 1.6 4.8 0.00 0.00 0.00 89 1011.0
20260509083503 7 15 3.2 6.4 0.00 0.00 0.00 89 1010.8
20260509083033 7 213 3.2 6.4 0.00 0.00 0.00 89 1010.9
20260509082508 7 51 0.0 3.2 0.00 0.00 0.00 89 1010.7
20260509082007 7 160 0.0 0.0 0.00 0.00 0.00 89 1010.8
20260509081524 7 76 0.0 0.0 0.00 0.00 0.00 89 1010.6
20260509081009 7 76 0.0 3.2 0.00 0.00 0.00 89 1010.7
20260509080504 7 76 0.0 3.2 0.00 0.00 0.00 89 1010.6
20260509080010 7 76 0.0 3.2 0.00 0.00 0.00 89 1010.7
20260509075503 7 76 0.0 3.2 0.00 0.00 0.00 89 1010.7
20260509075003 7 76 0.0 1.6 0.00 0.00 0.00 89 1010.6
20260509074514 7 76 0.0 1.6 0.00 0.00 0.00 89 1010.6
20260509074007 7 76 0.0 3.2 0.00 0.00 0.00 88 1010.6
20260509073504 7 91 0.0 3.2 0.00 0.00 0.00 88 1010.6
20260509073020 7 147 0.0 4.8 0.00 0.00 0.00 88 1010.5
20260509072507 7 236 0.0 4.8 0.00 0.00 0.00 88 1010.5
20260509072010 7 172 1.6 4.8 0.00 0.00 0.00 88 1010.7
20260509071523 7 153 3.2 6.4 0.00 0.00 0.00 88 1010.6
20260509071008 7 217 4.8 6.4 0.00 0.00 0.00 88 1010.5
20260509070509 7 211 1.6 4.8 0.00 0.00 0.00 88 1010.5
20260509070027 7 178 1.6 1.6 0.00 0.00 0.00 88 1010.5
20260509065506 7 223 0.0 0.0 0.00 0.00 0.00 87 1010.5
20260509065007 7 223 0.0 0.0 0.00 0.00 0.00 87 1010.6
20260509064520 7 223 0.0 3.2 0.00 0.00 0.00 87 1010.7
20260509064005 7 223 0.0 3.2 0.00 0.00 0.00 86 1010.8
20260509063504 7 178 0.0 3.2 0.00 0.00 0.00 86 1011.1
20260509063017 7 305 0.0 3.2 0.00 0.00 0.00 86 1011.1
20260509062504 7 199 1.6 3.2 0.00 0.00 0.00 86 1011.3
20260509062005 7 4 0.0 3.2 0.00 0.00 0.00 87 1011.2
20260509061536 7 340 1.6 6.4 0.00 0.00 0.00 87 1011.2
20260509061009 7 360 3.2 6.4 0.00 0.00 0.00 87 1011.3
20260509060507 8 146 3.2 6.4 0.00 0.00 0.00 87 1011.4
20260509060026 7 208 1.6 4.8 0.00 0.00 0.00 87 1011.6
20260509055511 8 214 0.0 4.8 0.00 0.00 0.00 86 1011.7
20260509055010 8 166 0.0 3.2 0.00 0.00 0.00 86 1011.8
20260509054510 8 244 0.0 0.0 0.00 0.00 0.00 86 1011.9
20260509054005 8 9 0.0 0.0 0.00 0.00 0.00 86 1011.8
20260509053505 8 9 0.0 0.0 0.00 0.00 0.00 86 1011.9
20260509053028 8 9 0.0 0.0 0.00 0.00 0.00 86 1011.9
20260509052504 8 9 0.0 0.0 0.00 0.00 0.00 86 1011.9
20260509052004 8 339 0.0 0.0 0.00 0.00 0.00 86 1012.0
20260509051521 8 334 0.0 0.0 0.00 0.00 0.00 86 1012.1
20260509051007 8 15 0.0 0.0 0.00 0.00 0.00 86 1012.2
20260509050507 8 15 0.0 0.0 0.00 0.00 0.00 86 1012.2
20260509050025 8 15 0.0 0.0 0.00 0.00 0.00 86 1012.2
20260509045509 8 15 0.0 0.0 0.00 0.00 0.00 86 1012.2
20260509045007 8 15 0.0 0.0 0.00 0.00 0.00 86 1012.2
20260509044530 8 15 0.0 0.0 0.00 0.00 0.00 87 1012.2
20260509044007 8 15 0.0 0.0 0.00 0.00 0.00 86 1012.2
20260509043509 8 15 0.0 0.0 0.00 0.00 0.00 86 1012.3
20260509043010 8 15 0.0 0.0 0.00 0.00 0.00 86 1012.2
20260509042506 8 41 0.0 0.0 0.00 0.00 0.00 86 1012.3
20260509042004 8 46 0.0 0.0 0.00 0.00 0.00 86 1012.4
20260509041518 8 59 0.0 0.0 0.00 0.00 0.00 85 1012.4
20260509041004 8 80 0.0 0.0 0.00 0.00 0.00 85 1012.5
20260509040503 8 19 0.0 0.0 0.00 0.00 0.00 85 1012.6
20260509040021 8 332 0.0 0.0 0.00 0.00 0.00 85 1012.5
20260509035509 8 332 0.0 0.0 0.00 0.00 0.00 85 1012.6
20260509035009 8 284 0.0 0.0 0.00 0.00 0.00 85 1012.6
20260509034526 8 284 0.0 0.0 0.00 0.00 0.00 85 1012.6
20260509034006 8 284 0.0 0.0 0.00 0.00 0.00 84 1012.7
20260509033510 8 280 0.0 3.2 0.00 0.00 0.00 85 1012.7
20260509033026 8 280 0.0 3.2 0.00 0.00 0.00 85 1012.5
20260509032511 8 357 0.0 0.0 0.00 0.00 0.00 86 1012.5
20260509032006 8 357 0.0 0.0 0.00 0.00 0.00 86 1012.5
20260509031518 8 357 0.0 0.0 0.00 0.00 0.00 85 1012.4
20260509031004 8 357 0.0 0.0 0.00 0.00 0.00 85 1012.4
20260509030511 8 357 0.0 0.0 0.00 0.00 0.00 86 1012.4
20260509030023 8 196 0.0 0.0 0.00 0.00 0.00 85 1012.4
20260509025503 8 195 0.0 0.0 0.00 0.00 0.00 85 1012.4
20260509025009 7 195 0.0 0.0 0.00 0.00 0.00 85 1012.5
20260509024526 7 195 0.0 0.0 0.00 0.00 0.00 85 1012.5
20260509024009 7 195 0.0 0.0 0.00 0.00 0.00 85 1012.6
20260509023507 7 195 0.0 0.0 0.00 0.00 0.00 85 1012.5
20260509023027 7 195 0.0 0.0 0.00 0.00 0.00 85 1012.5
20260509022515 7 194 0.0 3.2 0.00 0.00 0.00 85 1012.5
20260509022008 7 191 0.0 3.2 0.00 0.00 0.00 84 1012.5
20260509021530 7 192 0.0 4.8 0.00 0.00 0.00 84 1012.5
20260509021003 8 207 1.6 4.8 0.00 0.00 0.00 84 1012.5
20260509020507 8 205 0.0 3.2 0.00 0.00 0.00 83 1012.5
20260509020021 8 243 1.6 3.2 0.00 0.00 0.00 83 1012.3
20260509015504 8 184 0.0 0.0 0.00 0.00 0.00 81 1012.4
20260509015006 8 184 0.0 0.0 0.00 0.00 0.00 81 1012.3
20260509014521 9 184 0.0 0.0 0.00 0.00 0.00 81 1012.2
20260509014012 9 184 0.0 0.0 0.00 0.00 0.00 81 1012.3
20260509013511 9 184 0.0 0.0 0.00 0.00 0.00 81 1012.4
20260509013024 9 184 0.0 0.0 0.00 0.00 0.00 81 1012.4
20260509012508 9 184 0.0 0.0 0.00 0.00 0.00 81 1012.3
20260509012007 9 184 0.0 0.0 0.00 0.00 0.00 81 1012.4
20260509011528 9 184 0.0 0.0 0.00 0.00 0.00 80 1012.5
20260509011007 9 184 0.0 0.0 0.00 0.00 0.00 80 1012.4
20260509010508 9 184 0.0 0.0 0.00 0.00 0.00 80 1012.3
20260509010028 9 185 0.0 0.0 0.00 0.00 0.00 79 1012.4
20260509005508 9 189 0.0 0.0 0.00 0.00 0.00 79 1012.2
20260509005003 9 189 0.0 0.0 0.00 0.00 0.00 78 1012.3
20260509004532 9 190 0.0 0.0 0.00 0.00 0.00 79 1012.3
20260509004006 10 191 0.0 0.0 0.00 0.00 0.00 79 1012.2
20260509003507 10 189 0.0 0.0 0.00 0.00 0.00 78 1012.2
20260509003006 10 272 0.0 0.0 0.00 0.00 0.00 76 1012.2
20260509002503 10 272 0.0 0.0 0.00 0.00 0.00 76 1012.1
20260509002005 10 272 0.0 0.0 0.00 0.00 0.00 76 1012.1
20260509001508 10 289 0.0 0.0 0.00 0.00 0.00 75 1011.9
20260509001003 11 289 0.0 0.0 0.00 0.00 0.00 74 1012.0
20260509000507 11 289 0.0 0.0 0.00 0.00 0.00 70 1011.9
20260509000014 11 289 0.0 0.0 0.00 0.00 0.00 72 1012.0
20260508235506 11 288 0.0 0.0 0.00 0.00 0.00 72 1012.1
20260508235004 11 288 0.0 0.0 0.00 0.00 0.00 73 1012.1
20260508234519 11 288 0.0 0.0 0.00 0.00 0.00 70 1012.1
20260508234003 11 288 0.0 0.0 0.00 0.00 0.00 71 1012.2
20260508233508 11 288 0.0 0.0 0.00 0.00 0.00 70 1012.1
20260508233003 12 288 0.0 0.0 0.00 0.00 0.00 70 1012.0
20260508232504 12 288 0.0 0.0 0.00 0.00 0.00 67 1011.9
20260508232006 12 297 0.0 1.6 0.00 0.00 0.00 64 1011.8
20260508231510 12 353 0.0 3.2 0.00 0.00 0.00 65 1011.9
20260508231005 12 353 1.6 3.2 0.00 0.00 0.00 62 1011.9
20260508230504 12 229 0.0 0.0 0.00 0.00 0.00 61 1011.9
20260508230010 12 229 0.0 1.6 0.00 0.00 0.00 60 1011.9
20260508225503 12 229 0.0 4.8 0.00 0.00 0.00 59 1012.0
20260508225003 12 235 1.6 4.8 0.00 0.00 0.00 59 1011.9